THORAD AGENA D DEB, 21721

Orbit data source: Space-Track

THORAD AGENA D DEB, 21721 is space debris in SSO originally from a launch on Wed, 08 Apr 1970 UTC launched from the Air Force Western Test Range (AFWTR). Debris objects in space refer to the collection of defunct objects orbiting the Earth. Examples of debris include non-operational satellites, rocket bodies, and fragments generated from explosions, collisions, or faulty payload assembly.

Loading next visibility...
Identifier
21721, 1970-025QG
Orbit
SSO
Country
Flag of USUS
Related business
Manufacturer
Unknown
Mission
Spacecraft
Bus & Motor
Unknown
Mass
Unknown
Launch date (UTC)
1970-04-08 (56 years ago)
Launch vehicle
Unknown
Launch site
Air Force Western Test Range (AFWTR)
Object type
Payload
Rocket body
Debris
Shape & HBR
Unknown shape, 0.1 m
Radar Cross Section
Small (<0.1 m²)

Expand to show TLE details & history
Last TLE update: 4 days ago

TLE from 4 days ago
0 THORAD AGENA D DEB
1 21721U 70025QG  25343.39446719  .00001851  00000-0  21338-2 0  9991
2 21721 100.0986 280.2327 0005631  26.6503 101.3438 13.70808521698198
Epoch: 2025-12-09T09:28Z
TLE epoch observation values (Epoch: 2025-12-09T09:28:01.965Z)
Latitude
50.9216°
Longitude
-107.55268°
Altitude
1,005.555 km
Speed
7.353 km/s
True Right ascension
07h 31m 20s
True Declination
50° 45' 32"
Sunlit
Object was in full shadow at epoch
Visualization orbit readout
Latitude
Unknown
Longitude
Unknown
Altitude
Unknown
Speed
Unknown
Apparent Right ascension
Unknown
Apparent Declination
Unknown
Sunlit
N/A
Visualization observer readout
Local Sidereal Time
00:06:13
Azimuth
Unknown
Elevation
Unknown
Doppler factor
Unknown
Orbital elements
Apogee altitude
998.116 km
Perigee altitude
989.813 km
Semi-major axis
7,372.101 km
Eccentricity
0.00056
Inclination
100.0986°
RAAN
280.2327°
Arg. of periapsis
26.6503°
True anomaly
101.40706°
Mean anomaly
101.3438°
Eccentric anomaly
101.37543°
Mean motion
3.42891 °/min
Orbital period
104.99 mins
BSTAR
0.0021338
Loading maneuver chart data...
Computing Atmospheric mass density...

Documentation

Showing up to 5 results
|